Location: Unspecified
(0.0000°N, 0.0000°E)
Time: 13:30:43
(UTC+00:00)

Vanguard 1 - Pass Details

Date: 08 October 2023
Orbit: 652 x 3828 km, 34.3° (Epoch: 05 December)

Event Time Altitude Azimuth Distance (km) Brightness Sun altitude
Rises 00:57:59 0° 226° (SW) 7,292 14.4 -71.6°
Enters shadow 00:59:39 - 223° (SW) 6,994 14.3 -71.2°
Exits shadow 01:18:31 - 157° (SSE) 4,534 13.6 -66.6°
Sets 01:23:23 0° 134° (SE) 4,744 13.9 -65.5°
